2023-001W (55029 NORAD) Tracking and Keplerian Element Data

This shows tracking and keplerian element data for the satellite.

Feedback or suggestion? Click here.




ElementValue
Catalog55029
Name2023-001W
Epoch Orbit169
Epoch Day13.7864221
Epoch Year2023
RAAN75.7369
Inclination97.5044
Eccentricity0.0011952
Argument of Perigee177.6367
Mean Anonmoly182.4923
Mean Motion15.12430994
Decay Rate0.00010886
L11 55029U 23001W 23013.78642210 .00010886 00000+0 62870-3 0 9994
L22 55029 97.5044 75.7369 0011952 177.6367 182.4923 15.12430994 1697



Live tracking and technical data element details for 2023-001W (NORAD 55029). 2023-001W can be tracked NOW for your location showing map with azimuth and elevation plus other details from your city location.







IsCatalogInMostPopularTable: catalog: 55029, numindb: 2
Update: records affected: 1



GetName: 55029 2023-001W

Hit Count: updated at: Tue, 07 Feb 2023 14:08:13 GMT